JBU1744 KTPA-KMIA

Flight info

Callsign JBU1744
Flight time N/A
Altitude 25000
Route GANDY8 SABEE FROGZ4
Aircraft A20N/M-SDE2E3FGHIRWXY/LB1

Departure

Time 2026-05-01 14:41
Airport Tampa International Airport (KTPA)

Arrival

Time N/A
Airport Miami International Airport (KMIA)
Time Latitude Longitude Altitude Speed Heading
2026-05-01 14:20 27.97452 -82.53194 22 ft 0 kts
2026-05-01 14:31 27.97450 -82.53194 22 ft 2 kts
2026-05-01 14:32 27.97435 -82.53196 22 ft 2 kts
2026-05-01 14:32 27.97420 -82.53197 22 ft 2 kts
2026-05-01 14:32 27.97406 -82.53198 22 ft 1 kts
2026-05-01 14:32 27.97394 -82.53197 22 ft 2 kts 335°
2026-05-01 14:33 27.97382 -82.53185 22 ft 2 kts 294°
2026-05-01 14:33 27.97379 -82.53175 22 ft 1 kts 270°
2026-05-01 14:33 27.97379 -82.53168 22 ft 0 kts 271°
2026-05-01 14:36 27.97379 -82.53171 22 ft 2 kts 271°
2026-05-01 14:36 27.97382 -82.53245 22 ft 16 kts 270°
2026-05-01 14:36 27.97311 -82.53274 22 ft 18 kts 104°
2026-05-01 14:36 27.97306 -82.53130 22 ft 18 kts 91°
2026-05-01 14:37 27.97335 -82.53003 22 ft 17 kts 26°
2026-05-01 14:37 27.97460 -82.52987 24 ft 19 kts
2026-05-01 14:37 27.97596 -82.52985 25 ft 19 kts
2026-05-01 14:37 27.97732 -82.52977 25 ft 19 kts
2026-05-01 14:38 27.97876 -82.52973 25 ft 22 kts
2026-05-01 14:38 27.98029 -82.52969 25 ft 22 kts
2026-05-01 14:38 27.98177 -82.52964 25 ft 21 kts
2026-05-01 14:38 27.98324 -82.52958 25 ft 20 kts
2026-05-01 14:39 27.98469 -82.52953 25 ft 20 kts
2026-05-01 14:39 27.98573 -82.52918 25 ft 14 kts 66°
2026-05-01 14:39 27.98533 -82.52833 26 ft 14 kts 166°
2026-05-01 14:39 27.98421 -82.52831 25 ft 26 kts 181°
2026-05-01 14:40 27.97974 -82.52846 25 ft 103 kts 181°
2026-05-01 14:40 27.97047 -82.52880 23 ft 164 kts 182°
2026-05-01 14:40 27.95830 -82.52906 344 ft 187 kts 181°
2026-05-01 14:40 27.94422 -82.52959 577 ft 223 kts 191°
2026-05-01 14:41 27.92837 -82.53574 928 ft 253 kts 205°